Flag for Hungary Weather past 2 weeks in Miskolc, Hungary

Now
33 °F

Overcast.


Feels Like: 33 °F
Forecast: 27 / 38 °F
Wind: No wind

Location: Miskolc

Current Time: Jan 27, 2015 at 12:01:01 AM

Latest Report: Jan 26, 2015 at 11:00 PM


Visibility: 8 mi

Pressure: 30.15 "Hg

Humidity: 83%

Dew point: 29 °F

Location of MiskolcLocation

Historic Weather in Miskolc — Graph

°F

Miskolc temperature yesterday

Maximum temperature yesterday: 40 °F (at 2:00 PM)
Minimum temperature yesterday: 27 °F (at 8:00 AM)
Average temperature yesterday: 33 °F

Past Weeks' High & Low Weather Summary

 TemperatureHumidityPressure
High48 °F (Jan 23, 1:00 PM)94% (Jan 19, 7:00 AM)30.25 "Hg (Jan 19, 7:00 AM)
Low27 °F (Jan 14, 9:00 AM)43% (Jan 11, 9:00 PM)29.78 "Hg (Jan 24, 3:00 PM)
Average38 °F83%30.04 "Hg
* Reported Jan 11 9:00 PM — Jan 26 9:00 PM, Miskolc, Weather by CustomWeather, © 2014

Note: Actual official high and low records may vary slightly from our data, if they occured in-between our weather recording intervals... More about our weather records

Advertising

Miskolc weather history for previous 24 hours

 ConditionsComfort  
Time TempWeatherWind HumidityBarometerVisibility
9:00 PM
Jan 26
35 °FOvercast.No wind76%30.18 "Hg7 mi
8:00 PM35 °FOvercast.1 mph76%30.19 "Hg9 mi
7:00 PM35 °FOvercast.1 mph75%30.20 "Hg9 mi
6:00 PM36 °FOvercast.1 mph74%30.20 "Hg9 mi
5:00 PM37 °FOvercast.No wind69%30.20 "Hg12 mi
4:00 PM38 °FOvercast.1 mph63%30.19 "Hg12 mi
3:00 PM38 °FScattered clouds.1 mph61%30.20 "Hg16 mi
2:00 PM40 °FPartly sunny.2 mph60%30.21 "Hg16 mi
1:00 PM39 °FOvercast.2 mph66%30.22 "Hg16 mi
12:00 PM37 °FOvercast.1 mph69%30.24 "Hg12 mi
11:00 AM35 °FOvercast.1 mph76%30.25 "Hg12 mi
10:00 AM34 °FOvercast.No wind90%30.25 "Hg7 mi
9:00 AM30 °FPartly sunny.No wind93%30.25 "Hg6 mi
8:00 AM27 °FScattered clouds.No wind91%30.24 "Hg6 mi
7:00 AM27 °FPassing clouds.1 mph93%30.23 "Hg6 mi
6:00 AM28 °FPassing clouds.No wind92%30.21 "Hg5 mi
5:00 AM28 °FFog.No wind92%30.20 "Hg2 mi
3:00 AM29 °FFog.No wind93%30.19 "Hg2 mi
2:00 AM29 °FFog.No wind92%30.19 "Hg2 mi
1:00 AM30 °FFog.No wind92%30.17 "Hg2 mi
12:00 AM31 °FFog.No wind92%30.16 "Hg2 mi
Weather by CustomWeather, © 2014

See weather overviewHow to use our weather pages